amortization-calc.com alexa rank chart, amortization-calc.com alexa rank daily changes

amortization-calc.com alexa rank chart, amortization-calc.com alexa rank daily changes

amortization-calc.com
Actual rank:
128 356

RANK HISTORY

Date Rank Diff
2017/05/20 128 356 -1 314
2017/05/19 129 670 +162
2017/05/18 129 508 -1 573
2017/05/17 131 081 +337
2017/05/16 130 744 +156
2017/05/15 130 588 -90
2017/05/14 130 678 -190
2017/05/13 130 868 -1 371
2017/05/12 132 239 +51
2017/05/11 132 188 +1 943
2017/05/10 130 245 +506
2017/05/09 129 739 +660
2017/05/08 129 079 +2 695
2017/05/07 126 384 -612
2017/05/06 126 996 -2 055
2017/05/05 129 051 +847
2017/05/04 128 204 -1 151
2017/05/03 129 355 -2 145
2017/05/02 131 500 +141
2017/05/01 131 359 +543
2017/04/30 130 816 +1 069
2017/04/29 129 747 +1 015
2017/04/28 128 732 -2 259
2017/04/27 130 991 -2 175
2017/04/26 133 166 -565
2017/04/25 133 731 -115
2017/04/24 133 846 +1 112
2017/04/23 132 734 +1 446
2017/04/22 131 288 -25
2017/04/21 131 313 +1 334
2017/04/20 129 979 +1 352
2017/04/19 128 627 -329
2017/04/18 128 956 +2 183
2017/04/17 126 773 +2 735
2017/04/16 124 038 +454
2017/04/15 123 584 +1 012
2017/04/14 122 572 +1 407
2017/04/13 121 165 +269
2017/04/12 120 896 +78
2017/04/11 120 818 -1 153
2017/04/09 121 971 +93
2017/04/08 121 878 +947
2017/04/07 120 931 +2 291
2017/04/06 118 640 +799
2017/04/05 117 841 -516
2017/04/04 118 357 -69
2017/04/03 118 426 +2 318
2017/04/02 116 108 +37
2017/04/01 116 071 +922
2017/03/31 115 149 +755
2017/03/30 114 394 -267
2017/03/29 114 661 -1 510
2017/03/28 116 171 +2 543
2017/03/27 113 628 -1 425
2017/03/26 115 053 +2 172
2017/03/25 112 881 +903
2017/03/24 111 978 -901
2017/03/23 112 879 +222
2017/03/22 112 657 +2 575
2017/03/21 110 082

WIDGET FOR YOUR SITE

DOMAINS WITH THE NEAREST RANK

Domain Rank
efka.gr 128 351
edmprod.com 128 352
tsu.ac.th 128 353
partnernet.men 128 354
kaigaimm.com 128 355
amortization-calc.com 128 356
targetx.com 128 357
baidu.jp 128 358
subscribewithamazon.com 128 359
codegeekz.com 128 360
uptasia.de 128 361

DOMAINS WITH THE NEAREST RANK BY TLD .com

Domain Rank
tempobet7000.com 128 346
efrennolasco.com 128 348
canadadrugs.com 128 350
edmprod.com 128 352
kaigaimm.com 128 355
amortization-calc.com 128 356
targetx.com 128 357
subscribewithamazon.com 128 359
codegeekz.com 128 360
audifs.com 128 362
dewa-surat.com 128 364